Weather Roundup
Issued by NWS Chicago, IL

Home | Current Version | Previous Version | Graphics & Text | Print | Product List | Glossary On
Versions: 1 2 3 4 5 6 7 8 9 10 11 12 13 14 15 16 17 18 19 20 21 22 23 24 25 26 27 28 29 30 31 32 33 34 35 36 37 38 39 40 41 42 43 44 45 46 47 48 49 50
000
NZUS59 KLOT 220808
HRRLOT

CHICAGO AREA WEATHER ROUNDUP
NATIONAL WEATHER SERVICE CHICAGO/ROMEOVILLE IL
300 AM CDT FRI MAY 22 2015

NOTE: "FAIR" INDICATES FEW OR NO CLOUDS BELOW 12,000 FEET WITH NO
SIGNIFICANT WEATHER AND/OR OBSTRUCTIONS TO VISIBILITY.

* THESE STATIONS ARE NOT UNDER NWS QUALITY CONTROL. THEY ALSO MAY NOT
  REPORT WEATHER SUCH AS PRECIPITATION OR FOG.

ILZ005-006-012>014-019>023-220900-
NORTHEAST ILLINOIS

CITY           SKY/WX    TMP DP  RH WIND       PRES   REMARKS
OHARE          CLEAR     55  41  59 NW3       30.05R
MIDWAY         CLEAR     58  43  57 N8        30.05R
AURORA         CLEAR     49  42  77 W8        30.05R
LANSING*       CLEAR     51  41  68 CALM      30.05R
JOLIET*        CLEAR     58  46  65 SW7       30.05R
WAUKEGAN       CLEAR     47  39  74 N7        30.07R
DUPAGE AIRPORT CLEAR     51  42  71 W5        30.04R
WHEELING       CLEAR     50  40  68 NE7       30.08R
KANKAKEE*      CLEAR     53  45  75 W7        30.07S
MORRIS*        CLEAR     52  45  75 W7        30.02S
LEWIS AIRPORT* CLEAR     54  44  67 W9        30.05R
NORTHERLY IS     N/A     54  45  71 NE1         N/A
$$

WIZ051-052-058>065-066-070>072-220900-
SOUTHEAST WISCONSIN

CITY           SKY/WX    TMP DP  RH WIND       PRES   REMARKS
MILWAUKEE      CLEAR     45  32  60 N5        30.09R
KENOSHA*       CLEAR     46  38  73 N6        30.08R
RACINE*        CLEAR     46  36  68 N7        30.10R
BURLINGTON     CLEAR     44  32  62 NE5       30.09R
WAUKESHA       CLEAR     43  32  65 CALM      30.10R
WEST BEND      CLEAR     39  34  81 CALM      30.10R
$$

INZ001>003-010>013-019-020-220900-
NORTHWEST INDIANA

CITY           SKY/WX    TMP DP  RH WIND       PRES   REMARKS
GARY*          CLEAR     53  44  70 SE3       30.06S
MICHIGAN CITY* NOT AVBL
RENSSELAER*    NOT AVBL
VALPARAISO     PTCLDY    54  41  61 W5        30.07R
$$

LMZ740>746-220900-
SOUTHERN LAKE MICHIGAN

STATION/POSITION TIME  SKY/WX   TEMP WIND        PRES    VSBY
                                AIR  DIR/SP/G
                 (UTC)          (F)  (DEG/KT/KT) (MB)    (MI)
HARRISON CRIB    0700            58   60/  3/  4   N/A
BURNHAM HARBOR   0800            57  260/  3/  9   N/A
CALUMET HARBOR   0700                 CALM  /  3   N/A
BURNS HARBOR     0700            57  260/  4/  9 1018.3R
MICHIGAN CITY    0700            55  260/  4/  6   N/A
$$

ABBREVIATIONS USED IN REMARKS
   TC - TEMPERATURE IN CELSIUS
  WCI - WIND CHILL INDEX
   HX - HEAT INDEX
  VSB - VISIBILITY
$$


USA.gov is the U.S. government's official web portal to all federal, state and local government web resources and services.